DUBAISAT 1

Satellite information

Favourite Embed

Satellite Type and Status

PAYLOADIN ORBIT

Key statistics

Satellite DUBAISAT 1 at a glance.

Uptime

5762

Days in orbit

Revolutions

≈ 14.7

Per day

Orbit

SSO

Sun Synchronous Orbit

Inclination

97.9

Latest

Satellite identification and parameters

Extended collection of information and parameters for DUBAISAT 1.

Object identification

Identified? True

Debris? False

Object name: DUBAISAT 1

International designator: 2009-041B

Object number (NORAD): 35682

Object ID (CCSDS): 35682

Country: UNITED ARAB EMIRATES (UAE)

Current information (Y/N): Y

RCS size: LARGE

Orbital parameters

Period: 97.701 minutes

Inclination: 97.9499 deg

SMA: 7026.824 km

Apoapsis: 655.336 km

Periapsis: 642.041 km

RAAN: 262.3478 deg

Eccentricy: 0.000946

Argument of periapsis: 294.704 deg

Mean anomaly: 65.3183 deg

Mean motion: 14.73886903 rev/day

Mean motion (dot): 0.00001587 rev/day2

B* drag term: 0.00024961 1/REarth

Two-line elements (TLE)

Creation date: May 8, 2025, 3:01 a.m.

Reference frame: TEME

Reference center: EARTH

Epoch: May 7, 2025, 9:32 p.m. UTC

TLE line 0: 0 DUBAISAT 1

TLE line 1: 1 35682U 09041B 25127.89749713 .00001587 00000-0 24961-3 0 9999

TLE line 2: 2 35682 97.9499 262.3478 0009460 294.7040 65.3183 14.73886903845372

Live tracking on map

Real-time ground track for satellite DUBAISAT 1.

In-orbit conjunctions

There are no conjunctions computed for DUBAISAT 1, at the moment. Check back to stay up to date, as we update our databases every day.

Go to all conjunctions

Associated space launch

Emirati Earth observation satellite. Launched with 5 secondary payloads.

DUBAISAT 1 was lifted into orbit during the mission ‘Dnepr | DubaiSat 1’, on board a Dnepr space rocket.

The launch took place on July 29, 2009, 6:46 p.m. from 109/95.

For more information about the launch, click the button.

Launch to space Dnepr | DubaiSat 1
Dnepr | DubaiSat 1

Agency: N/A

Status: Launch Successful

Launch date: July 29, 2009, 6:46 p.m. UTC

Rocket: Dnepr

Launch pad: 109/95

Location: Baikonur Cosmodrome, Republic of Kazakhstan

...

Latest news about this satellite

There are no fresh news available about this satellite. Check back as we update our databases every day.


Newsletter sign-up

Weekly statistics, charts and insights to help you stay on top of the space industry.